• In Schweiz
  • Länderverzeichnis
  • Für 7 Tage
  • Wassertemperatur
  • Satellitenkarten
  • Wetterkarte
  • Widgets
  • user-avatar
    Anmelden

    Stündliche Wetter Maun

    Heute, 15 November, Donnerstag

    Zeit Temperatur Niederschläge Wind Luftdruck Luftfeuchtigkeit
    00:00 +30°C° 0 mm 3 m/S 680 mmHg 19%
    01:00 +29°C° 0 mm 3 m/S 680 mmHg 20%
    02:00 +28°C° 0 mm 4 m/S 680 mmHg 21%
    03:00 +27°C° 0 mm 3 m/S 680 mmHg 21%
    04:00 +27°C° 0 mm 3 m/S 680 mmHg 22%
    05:00 +26°C° 0 mm 3 m/S 680 mmHg 22%
    06:00 +27°C° 0 mm 3 m/S 681 mmHg 20%
    07:00 +29°C° 0 mm 4 m/S 682 mmHg 18%
    08:00 +30°C° 0 mm 4 m/S 682 mmHg 15%
    09:00 +33°C° 0 mm 4 m/S 683 mmHg 13%
    10:00 +36°C° 0 mm 4 m/S 683 mmHg 11%
    11:00 +38°C° 0 mm 4 m/S 683 mmHg 9%
    12:00 +40°C° 0 mm 5 m/S 683 mmHg 9%
    13:00 +41°C° 0 mm 6 m/S 682 mmHg 8%
    14:00 +42°C° 0 mm 6 m/S 682 mmHg 8%
    15:00 +43°C° 0 mm 7 m/S 681 mmHg 8%
    16:00 +41°C° 0 mm 7 m/S 681 mmHg 9%
    17:00 +40°C° 0 mm 7 m/S 680 mmHg 9%
    18:00 +37°C° 0 mm 5 m/S 680 mmHg 10%
    19:00 +35°C° 0 mm 4 m/S 680 mmHg 12%
    20:00 +32°C° 0 mm 2 m/S 680 mmHg 14%
    21:00 +31°C° 0 mm 2 m/S 680 mmHg 14%
    22:00 +30°C° 0 mm 2 m/S 681 mmHg 14%
    23:00 +30°C° 0 mm 3 m/S 681 mmHg 13%

    Morgen, 16 November, Freitag

    Zeit Temperatur Niederschläge Wind Luftdruck Luftfeuchtigkeit
    00:00 +29°C° 0 mm 3 m/S 681 mmHg 14%
    01:00 +28°C° 0 mm 3 m/S 681 mmHg 14%
    02:00 +28°C° 0 mm 3 m/S 681 mmHg 15%
    03:00 +27°C° 0 mm 3 m/S 681 mmHg 18%
    04:00 +26°C° 0 mm 3 m/S 680 mmHg 20%
    05:00 +25°C° 0 mm 3 m/S 680 mmHg 23%
    06:00 +27°C° 0 mm 4 m/S 681 mmHg 22%
    07:00 +29°C° 0 mm 4 m/S 682 mmHg 20%
    08:00 +32°C° 0 mm 5 m/S 683 mmHg 18%
    09:00 +34°C° 0 mm 5 m/S 683 mmHg 15%
    10:00 +37°C° 0 mm 5 m/S 683 mmHg 12%
    11:00 +40°C° 0 mm 4 m/S 684 mmHg 8%
    12:00 +41°C° 0 mm 5 m/S 683 mmHg 7%
    13:00 +42°C° 0 mm 5 m/S 683 mmHg 6%
    14:00 +43°C° 0 mm 5 m/S 682 mmHg 5%
    15:00 +44°C° 0 mm 6 m/S 681 mmHg 5%
    16:00 +42°C° 0 mm 6 m/S 681 mmHg 6%
    17:00 +42°C° 0 mm 6 m/S 680 mmHg 6%
    18:00 +39°C° 0 mm 5 m/S 680 mmHg 7%
    19:00 +36°C° 0 mm 4 m/S 680 mmHg 9%
    20:00 +34°C° 0 mm 3 m/S 680 mmHg 10%
    21:00 +33°C° 0 mm 3 m/S 681 mmHg 11%
    22:00 +31°C° 0 mm 3 m/S 681 mmHg 12%
    23:00 +30°C° 0 mm 3 m/S 682 mmHg 13%

    übermorgen, 17 November, Samstag

    Zeit Temperatur Niederschläge Wind Luftdruck Luftfeuchtigkeit
    00:00 +30°C° 0 mm 3 m/S 681 mmHg 15%
    01:00 +29°C° 0 mm 3 m/S 681 mmHg 17%
    02:00 +29°C° 0 mm 4 m/S 681 mmHg 19%
    03:00 +28°C° 0 mm 3 m/S 681 mmHg 21%
    04:00 +27°C° 0 mm 3 m/S 680 mmHg 23%
    05:00 +26°C° 0 mm 3 m/S 680 mmHg 25%
    06:00 +28°C° 0 mm 3 m/S 681 mmHg 23%
    07:00 +30°C° 0 mm 4 m/S 682 mmHg 20%
    08:00 +32°C° 0 mm 4 m/S 682 mmHg 18%
    09:00 +35°C° 0 mm 4 m/S 683 mmHg 15%
    10:00 +37°C° 0 mm 3 m/S 683 mmHg 13%
    11:00 +40°C° 0 mm 3 m/S 683 mmHg 10%
    12:00 +42°C° 0 mm 3 m/S 682 mmHg 9%
    13:00 +43°C° 0 mm 3 m/S 682 mmHg 8%
    14:00 +44°C° 0 mm 3 m/S 681 mmHg 7%
    15:00 +43°C° 0 mm 3 m/S 680 mmHg 7%
    16:00 +43°C° 0 mm 3 m/S 680 mmHg 7%
    17:00 +43°C° 0 mm 4 m/S 679 mmHg 7%
    18:00 +40°C° 0 mm 4 m/S 679 mmHg 8%
    19:00 +37°C° 0 mm 3 m/S 680 mmHg 9%
    20:00 +35°C° 0 mm 3 m/S 680 mmHg 10%
    21:00 +34°C° 0 mm 3 m/S 680 mmHg 11%
    22:00 +32°C° 0 mm 2 m/S 680 mmHg 12%
    23:00 +31°C° 0 mm 2 m/S 680 mmHg 12%

    18 November, Sonntag

    Zeit Temperatur Niederschläge Wind Luftdruck Luftfeuchtigkeit
    00:00 +30°C° 0 mm 2 m/S 680 mmHg 13%
    01:00 +30°C° 0 mm 2 m/S 679 mmHg 14%
    02:00 +29°C° 0 mm 2 m/S 679 mmHg 15%
    03:00 +28°C° 0 mm 2 m/S 679 mmHg 16%
    04:00 +28°C° 0 mm 2 m/S 679 mmHg 18%
    05:00 +27°C° 0 mm 2 m/S 679 mmHg 19%
    06:00 +29°C° 0 mm 2 m/S 679 mmHg 18%
    07:00 +31°C° 0 mm 3 m/S 680 mmHg 16%
    08:00 +34°C° 0 mm 3 m/S 681 mmHg 15%
    09:00 +36°C° 0 mm 3 m/S 681 mmHg 13%
    10:00 +39°C° 0 mm 3 m/S 681 mmHg 11%
    11:00 +43°C° 0 mm 3 m/S 682 mmHg 9%
    12:00 +44°C° 0 mm 3 m/S 681 mmHg 8%
    13:00 +44°C° 0 mm 3 m/S 680 mmHg 8%
    14:00 +45°C° 0 mm 3 m/S 679 mmHg 7%
    15:00 +44°C° 0 mm 3 m/S 679 mmHg 7%
    16:00 +44°C° 0 mm 3 m/S 679 mmHg 8%
    17:00 +43°C° 0 mm 3 m/S 678 mmHg 8%
    18:00 +40°C° 0 mm 3 m/S 678 mmHg 9%
    19:00 +39°C° 0 mm 2 m/S 679 mmHg 11%
    20:00 +37°C° 0 mm 2 m/S 679 mmHg 12%
    21:00 +36°C° 0 mm 2 m/S 679 mmHg 13%
    22:00 +35°C° 0 mm 2 m/S 679 mmHg 14%
    23:00 +34°C° 0 mm 2 m/S 680 mmHg 15%

    19 November, Montag

    Zeit Temperatur Niederschläge Wind Luftdruck Luftfeuchtigkeit
    00:00 +32°C° 0 mm 2 m/S 679 mmHg 16%
    01:00 +31°C° 0 mm 2 m/S 679 mmHg 17%
    02:00 +31°C° 0 mm 2 m/S 678 mmHg 18%
    03:00 +30°C° 0 mm 2 m/S 678 mmHg 20%
    04:00 +29°C° 0 mm 2 m/S 678 mmHg 21%
    05:00 +28°C° 0 mm 2 m/S 678 mmHg 22%
    06:00 +30°C° 0 mm 3 m/S 679 mmHg 21%
    07:00 +33°C° 0 mm 4 m/S 680 mmHg 19%
    08:00 +35°C° 0 mm 5 m/S 681 mmHg 18%
    09:00 +37°C° 0 mm 5 m/S 681 mmHg 16%
    10:00 +41°C° 0 mm 4 m/S 682 mmHg 14%
    11:00 +43°C° 0 mm 4 m/S 682 mmHg 12%
    12:00 +43°C° 0 mm 4 m/S 681 mmHg 12%
    13:00 +43°C° 0 mm 3 m/S 680 mmHg 11%
    14:00 +43°C° 0 mm 3 m/S 679 mmHg 11%
    15:00 +42°C° 0 mm 3 m/S 679 mmHg 12%
    16:00 +41°C° 0 mm 2 m/S 679 mmHg 12%
    17:00 +40°C° 0 mm 2 m/S 678 mmHg 13%
    18:00 +39°C° 0 mm 2 m/S 678 mmHg 14%
    19:00 +36°C° 0 mm 1 m/S 679 mmHg 16%
    20:00 +35°C° 0 mm 1 m/S 679 mmHg 17%
    21:00 +35°C° 0 mm 1 m/S 679 mmHg 18%
    22:00 +34°C° 0 mm 1 m/S 679 mmHg 18%
    23:00 +34°C° 0 mm 1 m/S 680 mmHg 19%

    20 November, Dienstag

    Zeit Temperatur Niederschläge Wind Luftdruck Luftfeuchtigkeit
    00:00 +34°C° 0 mm 2 m/S 679 mmHg 20%
    01:00 +32°C° 0 mm 2 m/S 678 mmHg 22%
    02:00 +31°C° 0 mm 3 m/S 678 mmHg 24%
    03:00 +30°C° 0 mm 2 m/S 678 mmHg 26%
    04:00 +29°C° 0 mm 2 m/S 678 mmHg 29%
    05:00 +28°C° 0 mm 2 m/S 678 mmHg 31%
    06:00 +30°C° 0 mm 3 m/S 679 mmHg 29%
    07:00 +33°C° 0 mm 4 m/S 680 mmHg 27%
    08:00 +34°C° 0 mm 5 m/S 680 mmHg 24%
    09:00 +37°C° 0 mm 5 m/S 681 mmHg 21%
    10:00 +40°C° 0 mm 5 m/S 681 mmHg 18%
    11:00 +42°C° 0 mm 4 m/S 681 mmHg 15%
    12:00 +42°C° 0 mm 4 m/S 680 mmHg 15%
    13:00 +42°C° 0 mm 3 m/S 679 mmHg 14%
    14:00 +41°C° 0 mm 2 m/S 678 mmHg 14%
    15:00 +41°C° 0 mm 2 m/S 678 mmHg 14%
    16:00 +41°C° 0 mm 1 m/S 678 mmHg 14%
    17:00 +41°C° 0 mm 1 m/S 678 mmHg 14%
    18:00 +39°C° 0 mm 1 m/S 678 mmHg 16%
    19:00 +36°C° 0 mm 1 m/S 678 mmHg 17%
    20:00 +34°C° 0 mm 1 m/S 678 mmHg 19%
    21:00 +35°C° 0 mm 2 m/S 678 mmHg 21%
    22:00 +34°C° 0 mm 2 m/S 678 mmHg 22%
    23:00 +33°C° 0 mm 3 m/S 678 mmHg 24%
    Mehr zeigen